Starlink 11353

operational
NORAD ID: 61941 Int'l Des: 2024-209 Owner: SPXS Country: US Constellation: starlink
LEOCIRCULAR

About Starlink 11353

Description loading...

Live Position

Loading 3D Globe...

Upcoming Passes

Altitude History

Altitude vs Time

uPlot chart will show altitude changes over time

Two-Line Element Set

1 61941U 24209C 25304.25717176 .00212333 00000-0 17069-2 0 9997
2 61941 53.1567 288.9814 0001122 116.9230 243.1903 15.69796233 56350
Epoch: Oct 31, 2025 • Age: 21 hours

Current Status

Altitude 376.4 km
Velocity 7.68 km/s
Sub-Earth Point -50.49°S, 81.98°E
Launch Date Nov 14, 2024
Age 0.9 years
Type internet

Technical Details

Classification Payload
Mass 960.00 kg
Dry Mass 910.00 kg
Total Mass 960.00 kg
Length 0.30 m
Diameter 4.10 m
Span 29.00 m
Shape Box + pan
Manufacturer SPXS
Bus Type Starlink V2MD
Phase Status In Orbit
Owner/State SPXS/US

Large Constellations

Loading constellations...